User: anonymous   Login
Location: *
(45.8589°N, 4.7139°E)
Time: 17:36:09
(UTC+00:00)
Language:

Cosmos 2228 - Orbit

View from above orbital plane
View from above orbital plane
View from above satellite
View from above satellite

Ground track
Ground track

The orbit data is extracted from the following two-line orbital elements,

1 22286U 92094A   20185.11041179  .00000144  00000-0  12810-4 0  9999
2 22286  82.5199  45.1171 0021984  32.7995 327.4582 14.88148363487842
Epoch (UTC): 03 July 2020 02:38:59
Eccentricity: 0.0021984
inclination: 82.5199°
perigee height: 588 km
apogee height: 619 km
right ascension of ascending node: 45.1171°
argument of perigee: 32.7995°
revolutions per day: 14.88148363
mean anomaly at epoch: 327.4582°
orbit number at epoch: 48784

The dashed part of the orbit path shows where the satellite is in the earth's shadow,  

DLR